User: anonymous   Login
Location: Unspecified
(0.0000°N, 0.0000°E)
Time: 01:41:20
(UTC+00:00)
Language:

Cosmos 1674 - Orbit

View from above orbital plane
View from above orbital plane
View from above satellite
View from above satellite

Ground track
Ground track

The orbit data is extracted from the following two-line orbital elements,

1 15944U 85069A   18114.90265246 +.00000752 +00000-0 +34276-4 0  9990
2 15944 082.5062 280.3782 0018620 125.2224 235.0757 15.18920457785059
Epoch (UTC): 24 April 2018 21:39:49
Eccentricity: 0.0018620
inclination: 82.5062°
perigee height: 496 km
apogee height: 522 km
right ascension of ascending node: 280.3782°
argument of perigee: 125.2224°
revolutions per day: 15.18920457
mean anomaly at epoch: 235.0757°
orbit number at epoch: 78505

The dashed part of the orbit path shows where the satellite is in the earth's shadow,  

DLR